SCP
0 0 0 0 0 0 0 0 0 0 0 0 0 0 0 0 0 0 0 0 0 0 0 0 0 0 0 0 0 0 0 0 0 0 0 0 0 0 0 0 0 0 0
0 0 0 0 0 0 0 0 0 0 0 0 0 0 0 0 0 0 0 0 0 0 0 0 0 0 0 0 0 0 0 0 0 0 0 0 0 0 0 0 0 0 0
0 0 0 0 0 0 0 0 0 0 0 0 0 0 0 0 0 0 0 0 0 0 0 0 0 0 -0 0 0 0 0 0 0 0 0 0 0 0 0 0 0 0 0
0 0 0 0 0 0 0 0 0 0 0 0 0 0 0 0 0 0 0 0 0 0 0 0 0 0 0 0 0 0 0 0 0 0 0 0 0 0 0 0 0 0 0
0 0 0 0 0 0 0 0 0 0 0 0 0 0 0 0 0 0 0 0 0 0 0 0 0 0 0 0 0 0 0 0 0 0 0 0 0 0 0 0 0 0 0
0 0 0 0 0 0 0 0 0 0 0 0 0 0 0 0 0 0 0 0 0 0 0 0 0 0 0 0 0 0 0 0 0 0 0 0 0 0 0 0 0 0 0
0 0 0 0 0 0 0 0 0 0 0 0 0 0 0 0 0 0 0 0 0 0 0 0 0 0 0 0 0 0 0 0 0 0 0 0 0 0 0 0 0 0 0
0 0 0 0 0 0 0 0 0 0 0 0 0 0 0 0 0 0 0 0 0 0 0 0 0 0 0 0 0 0 0 0 0 0 0 0 0 0 0 0 0 0 0
0 0 0 0 0 0 0 0 0 0 0 0 0 0 0 0 0 0 0 0 0 0 0 0 0 0 0 0 0 0 0 0 0 0 0 0 0 0 0 0 0 0 0
0 0 0 0 0 0 0 0 0 0 0 0 0 0 0 0 0 0 0 0 0 0 0 0 0 0 0 0 0 0 0 0 0 0 0 0 0 0 0 0 0 0 0
0 0 0 0 0 0 0 0 0 0 0 0 0 0 0 0 0 0 0 0 0 0 0 0 0 0 0 0 0 0 0 0 0 0 0 0 0 0 0 0 0 0 0
0 0 0 0 0 0 0 0 0 0 0 0 0 0 0 0 0 0 0 0 0 0 0 0 0 0 0 0 0 0 0 0 0 0 0 0 0 0 0 0 0 0 0
0 0 0 0 0 0 0 0 0 0 0 0 0 0 0 0 0 0 0 0 0 0 0 0 0 0 0 0 0 0 0 0 0 0 0 0 0 0 0 0 0 0 0
0 0 0 0 0 0 0 0 0 0 0 0 0 0 0 0 0 0 0 0 0 0 0 0 0 0 0 0 0 0 0 0 0 0 0 0 0 0 0 0 0 0 0
0 0 0 0 0 0 0 0 0 0 0 0 0 0 0 0 0 0 0 0 0 0 0 0 0 0 0 0 0 0 0 0 0 0 0 0 0 0 0 0 0 0 0
0 0 0 0 0 0 0 0 0 0 0 0 0 0 0 0 0 0 0 0 0 0 0 0 0 0 0 0 0 0 0 0 0 0 0 0 0 0 0 0 0 0 0
0 0 0 0 0 0 0 0 0 0 0 0 0 0 0 0 0 0 0 0 0 0 0 0 0 0 0 0 0 0 0 0 0 0 0 0 0 0 0 0 0 0 0
0 0 0 0 0 0 0 0 0 0 0 0 0 0 0 0 0 0 0 0 0 0 0 0 0 0 0 0 0 0 0 0 0 0 0 0 0 0 0 0 0 0 0
0 0 0 0 0 0 0 0 0 0 0 0 0 0 0 0 0 0 0 0 0 0 0 0 0 0 0 0 0 0 0 0 0 0 0 0 0 0 0 0 0 0 0
0 0 0 0 0 0 0 0 0 0 0 0 0 0 0 0 0 0 0 0 0 0 0 0 0 0 0 0 0 0 0 0 0 0 0 0 0 0 0 0 0 0 0
0 0 0 0 0 0 0 0 0 0 0 0 0 0 0 0 0 0 0 0 0 0 0 0 0 0 0 0 0 0 0 0 0 0 0 0 0 0 0 0 0 0 0
0 0 0 0 0 0 0 0 0 0 0 0 0 0 0 0 0 0 0 0 0 0 0 0 0 0 0 0 0 0 0 0 0 0 0 0 0 0 0 0 0 0 0
0 0 0 0 0 0 0 0 0 0 0 0 0 0 0 0 0 0 0 0 0 0 0 0 0 0 0 0 0 0 0 0 0 0 0 0 0 0 0 0 0 0 0
0 0 0 0 0 0 0 0 0 0 0 0 0 0 0 0 0 0 0 0 0 0 0 0 0 0 0 0 0 0 0 0 0 0 0 0 0 0 0 0 0 0 0
0 0 0 0 0 0 0 0 0 0 0 0 0 0 0 0 0 0 0 0 0 0 0 0 0 0 0 0 0 0 0 0 0 0 0 0 0 0 0 0 0 0 0
0 0 0 0 0 0 0 0 0 0 0 0 0 0 0 0 0 0 0 0 0 0 0 0 0 0 0 0 0 0 0 0 0 0 0 0 0 0 0 0 0 0 0
Wind_Speed_500mb
47 48 49 49 52 52 54 54 56 64 67 67 66 66 61 60 57 56 54 50 47 43 39 30 19 22 22 20 12 15 16 14 11 9 8 14 22 29 37 43 50 54 58
47 47 48 51 53 54 56 55 55 59 64 67 72 65 66 62 59 57 53 49 42 39 26 21 25 24 22 14 18 18 17 13 9 9 14 22 29 36 43 51 56 60 64
50 49 51 54 57 57 58 58 58 63 66 70 66 70 66 65 58 57 51 48 45 27 21 23 21 20 10 27 24 21 17 13 12 15 21 28 35 41 47 56 62 67 69
54 52 53 53 58 58 58 57 58 61 69 75 74 69 67 63 64 60 54 51 40 24 21 22 17 15 30 29 24 21 18 16 17 21 26 32 38 45 52 61 67 69 76
59 58 58 52 57 60 61 58 57 61 67 70 73 72 65 65 60 60 55 52 36 27 22 26 25 32 36 31 27 24 21 20 23 25 31 36 41 47 53 60 65 72 78
66 64 61 57 60 62 61 60 61 65 71 77 73 68 71 67 63 60 60 58 30 36 37 30 34 40 38 34 31 28 26 26 29 30 36 39 43 47 51 56 62 72 72
71 68 66 63 60 62 62 63 63 66 72 78 79 77 79 69 71 64 67 49 50 43 33 39 43 44 40 34 38 36 33 32 34 36 41 43 45 47 52 58 66 71 72
73 74 71 69 66 66 67 67 65 68 73 80 81 84 71 70 72 75 59 64 49 41 43 44 49 44 37 41 45 41 37 37 37 40 46 47 48 45 50 61 72 78 83
75 77 74 71 73 73 73 69 68 71 74 79 86 85 75 71 83 65 71 64 53 50 48 51 50 46 44 50 47 45 42 42 41 46 51 52 48 43 50 66 68 73 91
71 71 73 72 74 71 67 67 68 69 73 81 89 80 72 76 74 73 80 65 64 52 49 56 56 55 50 54 50 48 47 45 46 50 50 48 45 50 57 61 63 68 71
58 61 65 67 68 65 63 64 67 69 71 81 90 82 78 83 75 78 86 70 67 60 57 65 61 54 57 54 53 51 48 49 52 55 48 48 50 58 63 64 64 66 71
46 50 55 60 62 62 61 65 64 64 68 84 91 83 84 84 77 89 85 75 74 57 65 65 59 55 58 55 55 51 51 53 57 52 51 53 57 61 65 68 70 72 72
41 44 46 50 55 58 63 64 63 67 73 86 87 85 98 84 84 90 83 82 78 69 67 68 58 54 55 58 55 54 55 56 57 54 55 57 58 63 68 71 74 76 73
34 39 41 44 50 55 61 61 63 64 74 77 86 93 98 85 92 89 94 90 70 67 66 66 60 59 59 59 58 58 59 62 59 59 59 61 65 66 70 72 73 68 66
33 36 40 42 45 49 55 55 59 62 63 71 75 87 94 93 99 95 97 89 73 67 70 67 69 68 66 64 66 66 63 63 62 61 63 64 65 66 68 68 66 63 55
32 34 36 37 40 45 48 53 54 56 60 73 85 83 83 81 87 88 87 86 81 70 70 85 80 75 77 73 74 74 71 69 67 65 64 64 63 66 66 62 60 51 47
30 31 33 33 36 39 44 48 50 51 53 61 76 86 84 79 77 75 77 88 78 71 78 84 87 84 91 85 82 81 78 74 68 64 64 63 63 64 62 57 50 42 42
27 27 27 28 29 33 37 39 41 48 54 58 61 68 71 74 76 73 76 79 92 92 96 96 87 77 85 92 90 86 79 75 69 64 62 61 59 59 56 50 43 39 40
31 31 30 29 28 29 30 34 35 38 44 50 53 58 61 65 65 67 64 77 96 104 105 106 94 88 83 87 90 83 77 71 66 63 60 57 55 54 50 43 40 39 39
32 32 31 28 27 27 29 29 30 31 36 35 39 41 42 51 65 68 75 77 78 88 96 96 96 97 92 88 83 77 73 70 67 63 59 55 53 50 45 39 38 39 37
32 32 31 29 30 31 31 31 32 35 35 35 37 38 39 46 52 62 73 81 83 82 84 85 89 88 81 79 79 78 75 69 64 60 58 53 51 47 42 39 37 37 37
33 34 32 32 34 36 36 37 39 41 40 41 42 41 42 50 54 58 65 70 79 81 82 87 83 80 79 77 76 74 70 64 61 61 54 51 47 44 42 39 37 37 39
33 32 34 36 37 39 40 41 41 41 42 44 46 49 49 53 56 61 63 63 68 71 74 76 80 83 82 78 75 71 66 63 61 56 51 49 47 45 42 41 39 39 38
27 29 31 33 35 36 36 37 38 40 41 43 45 47 47 49 52 56 60 62 62 65 67 70 73 72 67 67 66 64 62 62 60 52 51 48 48 45 43 40 40 38 37
24 25 26 27 27 27 28 29 30 32 34 37 38 41 43 45 47 49 52 54 57 57 57 57 56 58 63 65 65 63 60 60 52 50 51 48 48 46 43 40 39 38 36
12 11 11 11 12 15 18 20 24 27 29 32 34 36 39 41 43 44 45 45 45 45 45 46 48 52 56 60 60 58 58 55 50 51 47 48 48 45 42 39 38 38 37
Wind_Direction_500mb
220 224 226 225 223 227 227 227 229 226 222 219 210 209 205 203 200 200 201 196 190 185 176 173 187 182 181 180 180 194 183 182 187 210 276 317 323 328 329 330 331 331 330
223 227 227 226 226 227 228 231 230 226 222 217 215 208 204 205 206 209 205 196 187 178 182 187 185 184 187 179 208 196 195 201 221 270 305 317 325 328 329 331 330 329 326
226 229 230 225 225 227 229 232 231 226 220 213 214 206 213 203 213 206 199 192 182 185 188 189 193 197 212 235 209 206 212 232 262 289 308 318 321 326 328 329 326 325 327
228 231 233 228 227 228 230 228 224 220 218 217 212 211 206 211 205 208 193 187 183 188 194 200 211 243 236 222 218 224 238 257 282 300 310 315 321 324 327 325 323 325 327
228 231 233 230 230 232 230 229 225 223 222 218 209 208 207 208 208 199 193 195 196 198 207 227 245 234 225 227 232 239 252 271 288 300 307 313 319 321 322 322 322 323 325
232 233 232 230 228 231 233 229 227 225 219 213 214 204 205 207 208 209 214 202 201 222 225 247 236 230 230 231 239 252 263 276 286 297 304 308 313 316 319 320 321 324 327
237 235 234 231 229 233 233 232 230 226 222 216 206 206 203 208 212 213 205 209 227 221 250 233 235 234 233 241 249 251 260 272 284 297 300 305 309 313 316 319 320 321 317
240 238 235 232 229 228 231 232 230 226 220 217 208 206 205 209 215 208 212 225 225 244 255 234 238 236 240 250 252 258 265 275 285 291 294 300 302 311 317 317 318 317 315
239 238 236 233 231 228 229 230 230 225 219 215 209 204 220 210 210 210 224 218 240 249 249 231 236 239 242 251 254 261 267 276 283 288 293 300 308 307 310 314 318 317 317
239 238 235 234 233 232 233 232 231 228 223 215 208 214 213 216 213 221 225 225 239 248 246 235 237 243 247 253 256 261 269 276 280 282 287 295 299 303 307 310 311 312 315
237 238 237 235 233 232 232 232 232 229 222 213 210 223 214 215 224 223 227 232 243 247 253 239 238 244 252 256 259 263 271 274 278 281 290 296 299 303 305 309 310 312 313
234 233 230 227 227 228 230 231 231 228 222 213 217 217 215 219 228 227 224 237 245 254 274 237 239 247 257 256 258 264 269 274 275 283 289 294 298 301 304 307 308 310 311
220 220 220 221 223 225 228 228 226 223 223 218 222 217 216 227 225 223 233 240 246 260 265 238 236 252 254 255 258 263 267 265 270 276 282 287 292 297 302 305 307 311 312
213 214 214 217 221 223 225 226 227 224 224 222 221 222 220 234 228 226 232 233 241 262 260 242 241 253 254 257 257 258 258 262 268 273 279 287 292 296 300 303 308 314 312
206 211 212 214 221 224 227 230 230 231 232 228 228 228 230 237 230 234 233 232 242 261 263 249 249 252 254 255 258 260 259 261 266 273 279 285 289 295 299 303 309 312 311
210 211 214 214 217 221 226 230 231 234 236 235 232 236 242 247 246 245 239 243 248 252 264 253 249 254 257 257 259 262 264 265 268 272 278 281 286 291 295 300 304 307 305
207 209 213 212 217 222 227 230 233 233 237 239 239 245 249 251 247 249 246 245 243 253 259 264 254 260 257 256 260 263 264 266 266 268 273 277 285 289 293 298 299 301 301
202 204 212 220 222 225 229 233 234 236 239 243 240 241 246 248 249 248 254 244 242 248 255 261 260 267 260 256 259 261 261 262 263 265 268 275 282 286 289 293 293 294 297
199 207 208 212 219 228 230 233 234 236 239 241 245 245 248 247 246 256 257 248 246 248 255 259 260 264 268 263 261 261 260 260 260 261 268 273 278 280 283 283 283 285 289
200 206 210 216 220 227 232 235 239 242 246 247 249 254 251 246 244 245 246 253 252 253 256 257 258 262 267 266 263 258 257 258 256 261 266 271 271 272 273 272 274 278 284
207 214 216 219 224 230 235 239 243 246 249 251 254 254 255 253 248 246 250 257 260 260 261 261 263 267 264 268 265 258 256 253 254 262 264 264 264 266 264 264 267 272 279
218 223 226 229 231 234 237 240 242 245 249 254 258 258 256 257 257 254 254 255 259 261 263 268 270 269 266 270 265 259 253 252 259 260 258 257 259 259 259 261 264 270 277
230 234 236 238 240 241 243 246 251 255 258 259 261 261 257 257 258 261 261 259 260 260 260 262 264 265 265 261 255 248 249 257 260 254 252 251 254 254 254 258 263 267 272
231 233 236 238 242 246 248 251 253 256 260 262 264 267 268 266 265 266 268 270 268 266 264 262 263 264 258 249 247 251 258 257 251 246 243 246 249 250 253 256 260 263 267
230 230 232 236 240 246 252 257 261 263 266 269 270 272 274 276 275 274 274 275 275 274 270 267 264 259 256 254 255 256 252 246 240 237 240 244 248 251 252 254 256 258 262
209 214 227 239 252 261 266 271 276 279 280 281 282 282 282 281 280 279 277 275 272 270 266 262 258 255 253 254 254 251 245 240 234 240 243 245 246 249 250 251 253 256 259
Wind_Speed_850mb
47 48 49 49 52 52 54 54 56 64 67 67 66 66 61 60 57 56 54 50 47 43 39 30 19 22 22 20 12 15 16 14 11 9 8 14 22 29 37 43 50 54 58
47 47 48 51 53 54 56 55 55 59 64 67 72 65 66 62 59 57 53 49 42 39 26 21 25 24 22 14 18 18 17 13 9 9 14 22 29 36 43 51 56 60 64
50 49 51 54 57 57 58 58 58 63 66 70 66 70 66 65 58 57 51 48 45 27 21 23 21 20 10 27 24 21 17 13 12 15 21 28 35 41 47 56 62 67 69
54 52 53 53 58 58 58 57 58 61 69 75 74 69 67 63 64 60 54 51 40 24 21 22 17 15 30 29 24 21 18 16 17 21 26 32 38 45 52 61 67 69 76
59 58 58 52 57 60 61 58 57 61 67 70 73 72 65 65 60 60 55 52 36 27 22 26 25 32 36 31 27 24 21 20 23 25 31 36 41 47 53 60 65 72 78
66 64 61 57 60 62 61 60 61 65 71 77 73 68 71 67 63 60 60 58 30 36 37 30 34 40 38 34 31 28 26 26 29 30 36 39 43 47 51 56 62 72 72
71 68 66 63 60 62 62 63 63 66 72 78 79 77 79 69 71 64 67 49 50 43 33 39 43 44 40 34 38 36 33 32 34 36 41 43 45 47 52 58 66 71 72
73 74 71 69 66 66 67 67 65 68 73 80 81 84 71 70 72 75 59 64 49 41 43 44 49 44 37 41 45 41 37 37 37 40 46 47 48 45 50 61 72 78 83
75 77 74 71 73 73 73 69 68 71 74 79 86 85 75 71 83 65 71 64 53 50 48 51 50 46 44 50 47 45 42 42 41 46 51 52 48 43 50 66 68 73 91
71 71 73 72 74 71 67 67 68 69 73 81 89 80 72 76 74 73 80 65 64 52 49 56 56 55 50 54 50 48 47 45 46 50 50 48 45 50 57 61 63 68 71
58 61 65 67 68 65 63 64 67 69 71 81 90 82 78 83 75 78 86 70 67 60 57 65 61 54 57 54 53 51 48 49 52 55 48 48 50 58 63 64 64 66 71
46 50 55 60 62 62 61 65 64 64 68 84 91 83 84 84 77 89 85 75 74 57 65 65 59 55 58 55 55 51 51 53 57 52 51 53 57 61 65 68 70 72 72
41 44 46 50 55 58 63 64 63 67 73 86 87 85 98 84 84 90 83 82 78 69 67 68 58 54 55 58 55 54 55 56 57 54 55 57 58 63 68 71 74 76 73
34 39 41 44 50 55 61 61 63 64 74 77 86 93 98 85 92 89 94 90 70 67 66 66 60 59 59 59 58 58 59 62 59 59 59 61 65 66 70 72 73 68 66
33 36 40 42 45 49 55 55 59 62 63 71 75 87 94 93 99 95 97 89 73 67 70 67 69 68 66 64 66 66 63 63 62 61 63 64 65 66 68 68 66 63 55
32 34 36 37 40 45 48 53 54 56 60 73 85 83 83 81 87 88 87 86 81 70 70 85 80 75 77 73 74 74 71 69 67 65 64 64 63 66 66 62 60 51 47
30 31 33 33 36 39 44 48 50 51 53 61 76 86 84 79 77 75 77 88 78 71 78 84 87 84 91 85 82 81 78 74 68 64 64 63 63 64 62 57 50 42 42
27 27 27 28 29 33 37 39 41 48 54 58 61 68 71 74 76 73 76 79 92 92 96 96 87 77 85 92 90 86 79 75 69 64 62 61 59 59 56 50 43 39 40
31 31 30 29 28 29 30 34 35 38 44 50 53 58 61 65 65 67 64 77 96 104 105 106 94 88 83 87 90 83 77 71 66 63 60 57 55 54 50 43 40 39 39
32 32 31 28 27 27 29 29 30 31 36 35 39 41 42 51 65 68 75 77 78 88 96 96 96 97 92 88 83 77 73 70 67 63 59 55 53 50 45 39 38 39 37
32 32 31 29 30 31 31 31 32 35 35 35 37 38 39 46 52 62 73 81 83 82 84 85 89 88 81 79 79 78 75 69 64 60 58 53 51 47 42 39 37 37 37
33 34 32 32 34 36 36 37 39 41 40 41 42 41 42 50 54 58 65 70 79 81 82 87 83 80 79 77 76 74 70 64 61 61 54 51 47 44 42 39 37 37 39
33 32 34 36 37 39 40 41 41 41 42 44 46 49 49 53 56 61 63 63 68 71 74 76 80 83 82 78 75 71 66 63 61 56 51 49 47 45 42 41 39 39 38
27 29 31 33 35 36 36 37 38 40 41 43 45 47 47 49 52 56 60 62 62 65 67 70 73 72 67 67 66 64 62 62 60 52 51 48 48 45 43 40 40 38 37
24 25 26 27 27 27 28 29 30 32 34 37 38 41 43 45 47 49 52 54 57 57 57 57 56 58 63 65 65 63 60 60 52 50 51 48 48 46 43 40 39 38 36
12 11 11 11 12 15 18 20 24 27 29 32 34 36 39 41 43 44 45 45 45 45 45 46 48 52 56 60 60 58 58 55 50 51 47 48 48 45 42 39 38 38 37
Wind_Direction_850mb
220 224 226 225 223 227 227 227 229 226 222 219 210 209 205 203 200 200 201 196 190 185 176 173 187 182 181 180 180 194 183 182 187 210 276 317 323 328 329 330 331 331 330
223 227 227 226 226 227 228 231 230 226 222 217 215 208 204 205 206 209 205 196 187 178 182 187 185 184 187 179 208 196 195 201 221 270 305 317 325 328 329 331 330 329 326
226 229 230 225 225 227 229 232 231 226 220 213 214 206 213 203 213 206 199 192 182 185 188 189 193 197 212 235 209 206 212 232 262 289 308 318 321 326 328 329 326 325 327
228 231 233 228 227 228 230 228 224 220 218 217 212 211 206 211 205 208 193 187 183 188 194 200 211 243 236 222 218 224 238 257 282 300 310 315 321 324 327 325 323 325 327
228 231 233 230 230 232 230 229 225 223 222 218 209 208 207 208 208 199 193 195 196 198 207 227 245 234 225 227 232 239 252 271 288 300 307 313 319 321 322 322 322 323 325
232 233 232 230 228 231 233 229 227 225 219 213 214 204 205 207 208 209 214 202 201 222 225 247 236 230 230 231 239 252 263 276 286 297 304 308 313 316 319 320 321 324 327
237 235 234 231 229 233 233 232 230 226 222 216 206 206 203 208 212 213 205 209 227 221 250 233 235 234 233 241 249 251 260 272 284 297 300 305 309 313 316 319 320 321 317
240 238 235 232 229 228 231 232 230 226 220 217 208 206 205 209 215 208 212 225 225 244 255 234 238 236 240 250 252 258 265 275 285 291 294 300 302 311 317 317 318 317 315
239 238 236 233 231 228 229 230 230 225 219 215 209 204 220 210 210 210 224 218 240 249 249 231 236 239 242 251 254 261 267 276 283 288 293 300 308 307 310 314 318 317 317
239 238 235 234 233 232 233 232 231 228 223 215 208 214 213 216 213 221 225 225 239 248 246 235 237 243 247 253 256 261 269 276 280 282 287 295 299 303 307 310 311 312 315
237 238 237 235 233 232 232 232 232 229 222 213 210 223 214 215 224 223 227 232 243 247 253 239 238 244 252 256 259 263 271 274 278 281 290 296 299 303 305 309 310 312 313
234 233 230 227 227 228 230 231 231 228 222 213 217 217 215 219 228 227 224 237 245 254 274 237 239 247 257 256 258 264 269 274 275 283 289 294 298 301 304 307 308 310 311
220 220 220 221 223 225 228 228 226 223 223 218 222 217 216 227 225 223 233 240 246 260 265 238 236 252 254 255 258 263 267 265 270 276 282 287 292 297 302 305 307 311 312
213 214 214 217 221 223 225 226 227 224 224 222 221 222 220 234 228 226 232 233 241 262 260 242 241 253 254 257 257 258 258 262 268 273 279 287 292 296 300 303 308 314 312
206 211 212 214 221 224 227 230 230 231 232 228 228 228 230 237 230 234 233 232 242 261 263 249 249 252 254 255 258 260 259 261 266 273 279 285 289 295 299 303 309 312 311
210 211 214 214 217 221 226 230 231 234 236 235 232 236 242 247 246 245 239 243 248 252 264 253 249 254 257 257 259 262 264 265 268 272 278 281 286 291 295 300 304 307 305
207 209 213 212 217 222 227 230 233 233 237 239 239 245 249 251 247 249 246 245 243 253 259 264 254 260 257 256 260 263 264 266 266 268 273 277 285 289 293 298 299 301 301
202 204 212 220 222 225 229 233 234 236 239 243 240 241 246 248 249 248 254 244 242 248 255 261 260 267 260 256 259 261 261 262 263 265 268 275 282 286 289 293 293 294 297
199 207 208 212 219 228 230 233 234 236 239 241 245 245 248 247 246 256 257 248 246 248 255 259 260 264 268 263 261 261 260 260 260 261 268 273 278 280 283 283 283 285 289
200 206 210 216 220 227 232 235 239 242 246 247 249 254 251 246 244 245 246 253 252 253 256 257 258 262 267 266 263 258 257 258 256 261 266 271 271 272 273 272 274 278 284
207 214 216 219 224 230 235 239 243 246 249 251 254 254 255 253 248 246 250 257 260 260 261 261 263 267 264 268 265 258 256 253 254 262 264 264 264 266 264 264 267 272 279
218 223 226 229 231 234 237 240 242 245 249 254 258 258 256 257 257 254 254 255 259 261 263 268 270 269 266 270 265 259 253 252 259 260 258 257 259 259 259 261 264 270 277
230 234 236 238 240 241 243 246 251 255 258 259 261 261 257 257 258 261 261 259 260 260 260 262 264 265 265 261 255 248 249 257 260 254 252 251 254 254 254 258 263 267 272
231 233 236 238 242 246 248 251 253 256 260 262 264 267 268 266 265 266 268 270 268 266 264 262 263 264 258 249 247 251 258 257 251 246 243 246 249 250 253 256 260 263 267
230 230 232 236 240 246 252 257 261 263 266 269 270 272 274 276 275 274 274 275 275 274 270 267 264 259 256 254 255 256 252 246 240 237 240 244 248 251 252 254 256 258 262
209 214 227 239 252 261 266 271 276 279 280 281 282 282 282 281 280 279 277 275 272 270 266 262 258 255 253 254 254 251 245 240 234 240 243 245 246 249 250 251 253 256 259